Location: Asheville, NC
(35.6000°N, 82.5500°W)
Time: 13:18:59
(UTC-05:00)

CUTE-I - Pass Details

Date: 09 February 2018
Orbit: 811 x 825 km, 98.7° (Epoch: 21 February)

Event Time Altitude Azimuth Distance (km) Brightness Sun altitude
Rises 06:49:00 0° 14° (NNE) 3,350 ? -7.5°
Reaches altitude 10° 06:51:21 10° 15° (NNE) 2,417 ? -7.1°
Maximum altitude 06:56:43 82° 104° (ESE) 831 ? -6.0°
Drops below altitude 10° 07:02:04 10° 191° (SSW) 2,410 ? -4.9°
Sets 07:04:24 0° 192° (SSW) 3,340 ? -4.5°
